www.pogodaiklimat.ru

Погода и климат >> Архив погоды >> Австралия >> Blackall Airport


ПОГОДА в Blackall Airport

  • Прогноз погоды в Blackall Airport
  • Монитор погоды в Blackall Airport
  • Климат города

АРХИВ ПОГОДЫ в Blackall Airport

Время (UTC), дата Ветер
(напр.,м/с)
 
Видим.   Явления Облачность Т
(С)
Тd
(С)
f
(%)
Тe
(С)
Тes
(С)
Комфортность P
(гПа)
Po
(гПа)
Тmin
(С)
Tmax
(С)
R
(мм)
R24
(мм)
S
(см)
08 12.11 В 3 н/о н/о +32.6 +5.2 18 +30 +30 жарко 1011.3 979.7
11 12.11 СВ 3 н/о н/о +27.7 +7.0 27 +27 +27 жарко 1012.7 981.0
14 12.11 СВ 2 н/о н/о +24.0 +7.2 34 +24 +24 комфорт 1012.9 981.2 +35.1
17 12.11 В 3 н/о н/о +21.7 +8.2 42 +23 +23 комфорт 1011.9 980.2
20 12.11 СВ 5 н/о н/о +22.9 +8.6 40 +24 +24 комфорт 1013.5 981.8
23 12.11 СВ 7 н/о н/о +27.2 +10.0 34 +28 +28 жарко 1015.3 983.5
02 13.11 С 6 н/о н/о +31.8 +7.5 22 +30 +30 жарко 1012.9 981.2 +20.7
05 13.11 В 4 н/о н/о +33.6 +4.3 16 +31 +31 жарко 1009.7 978.1
08 13.11 С 1 н/о н/о +33.1 +3.0 15 +30 +30 жарко 1009.5 977.9
11 13.11 СВ 3 н/о н/о +28.2 +3.1 20 +26 +26 жарко 1011.5 979.9
14 13.11 СВ 4 н/о н/о +27.0 +3.5 22 +26 +26 жарко 1010.7 979.1 +35.3
17 13.11 С 4 н/о н/о +23.4 +3.4 27 +23 +23 комфорт 1010.0 978.4
20 13.11 СВ 4 н/о н/о +24.1 +11.1 44 +25 +25 комфорт 1012.8 981.1
23 13.11 С 7 н/о н/о +27.1 +12.3 40 +29 +29 жарко 1014.8 983.1
02 14.11 С 4 н/о н/о +32.6 +10.6 26 +32 +32 жарко 1013.2 981.5 +22.6
05 14.11 В 4 н/о н/о +34.0 +7.9 20 +32 +32 жарко 1010.7 979.1
08 14.11 ЮЗ 6 н/о н/о +25.1 +15.7 56 +28 +28 жарко 1013.0 981.3
11 14.11 В 4 н/о {туман} н/о +25.6 +16.2 56 +29 +29 душно 1013.6 981.9
14 14.11 В 4 н/о н/о +25.5 +14.3 50 +28 +28 жарко 1012.9 981.2 +35.8
17 14.11 Ю 3 н/о н/о +21.8 +13.9 61 +25 +25 комфорт 1012.2 980.5
20 14.11 В 2 н/о н/о +21.6 +14.0 62 +24 +24 комфорт 1014.3 982.6
23 14.11 С 5 н/о н/о +30.3 +13.1 35 +32 +32 жарко 1015.8 984.0
02 15.11 З 3 н/о н/о +33.7 +10.3 24 +33 +33 жарко 1014.1 982.4 +20.0
05 15.11 ЮЗ 3 н/о н/о +36.0 +9.5 20 +35 +35 очень
жарко
1011.6 980.0
08 15.11 Ю 3 н/о н/о +34.4 +6.7 18 +32 +32 жарко 1011.3 979.7
11 15.11 штиль 0 н/о н/о +26.8 +6.8 28 +26 +26 жарко 1012.4 980.7
14 15.11 ЮВ 3 н/о н/о +27.1 +6.0 26 +26 +26 жарко 1012.5 980.8 +37.1
17 15.11 В 2 н/о н/о +23.5 +8.0 37 +24 +24 комфорт 1011.3 979.7
20 15.11 СВ 3 н/о н/о +24.4 +10.7 42 +26 +26 жарко 1013.1 981.4
23 15.11 С 6 н/о н/о +30.9 +14.1 36 +33 +33 душно 1014.6 982.9
02 16.11 В 6 н/о н/о +35.7 +10.7 22 +35 +35 очень
жарко
1012.8 981.1 +23.0
05 16.11 СЗ 6 н/о н/о +34.4 +9.6 22 +33 +33 жарко 1010.0 978.4
08 16.11 СЗ 4 н/о н/о +31.9 +10.0 26 +31 +31 жарко 1009.7 978.1
11 16.11 СВ 3 н/о н/о +28.5 +11.1 34 +29 +29 жарко 1010.9 979.3
14 16.11 СВ 3 н/о н/о +25.9 +9.7 36 +27 +27 жарко 1010.5 978.9 +37.4
17 16.11 ЮВ 4 н/о н/о +24.7 +10.9 42 +26 +26 жарко 1009.5 977.9
20 16.11 СВ 4 н/о н/о +25.6 +10.2 38 +26 +26 жарко 1011.0 979.4
23 16.11 С 8 н/о н/о +30.1 +11.1 31 +30 +30 жарко 1012.3 980.6
02 17.11 С 6 н/о н/о +35.0 +9.4 21 +34 +34 очень
жарко
1010.7 979.1 +23.2
05 17.11 С 5 н/о н/о +37.7 +8.5 17 +36 +36 очень
жарко
1007.4 975.9
08 17.11 ЮЗ 3 н/о туман местами н/о +26.0 +17.6 60 +30 +30 душно 1009.7 978.1
11 17.11 В 4 н/о {туман} н/о +26.2 +16.4 55 +30 +30 душно 1011.1 979.5
14 17.11 В 5 н/о н/о +26.2 +14.6 49 +29 +29 жарко 1009.9 978.3 +38.1
17 17.11 В 5 н/о н/о +23.2 +16.7 67 +28 +28 душно 1009.1 977.5
20 17.11 В 1 н/о н/о +22.5 +17.4 73 +27 +27 душно 1010.0 978.4
23 17.11 С 6 н/о {туман} н/о +32.0 +10.7 27 +32 +32 жарко 1011.1 979.5
02 18.11 С 7 н/о н/о +36.0 +8.7 19 +34 +34 очень
жарко
1010.0 978.4 +22.4
05 18.11 СЗ 6 н/о н/о +36.3 +7.4 17 +34 +34 очень
жарко
1006.7 975.2
08 18.11 Ю 9 н/о в посл. час дождь {туман} н/о +28.0 +15.6 47 +31 +31 душно 1009.1 977.5
11 18.11 ЮВ 5 н/о {туман} н/о +24.3 +16.0 60 +28 +28 душно 1010.6 979.0
14 18.11 СВ 5 н/о н/о +23.5 +15.3 60 +26 +26 жарко 1010.0 978.4 +38.9
17 18.11 СВ 9 н/о н/о +23.0 +15.8 64 +27 +27 душно 1010.4 978.8
20 18.11 СВ 8 н/о н/о +22.3 +16.6 70 +27 +27 душно 1011.9 980.2
23 18.11 С 10 н/о н/о +27.5 +14.2 44 +30 +30 жарко 1013.0 981.3
02 19.11 С 8 н/о н/о +32.4 +11.0 27 +32 +32 жарко 1011.1 979.5 +22.1
05 19.11 С 6 н/о н/о +35.5 +10.5 22 +35 +35 очень
жарко
1008.1 976.6

 

Местоположение метеостанции Blackall Airport (Квинсленд, Австралия): широта -24.42 долгота 145.43 высота над уровнем моря 282 м.

В архиве по умолчанию представлена погода в Blackall Airport за последнюю неделю. Архивные данные за месяц целиком и за предыдущие месяцы, начиная с января 2011 года, Вы можете получить, выбрав интересующий диапазон дат из раскрывающегося списка и нажав кнопку "Ввод!".


*Определитесь, кто Вы:
робот инопланетянин человек

Внимание! Время в таблицах - всемирное. Для получения местного времени необходимо прибавить поправку, которая в Blackall Airport равна 10 ч.

Смотрите также архив погоды в соседних городах и на ближайших метеорологических станциях:

Погода в Longreach Airport (Квинсленд, Австралия) (161 км)
Погода в Lochington (Квинсленд, Австралия) (219 км)
Погода в Charleville Aero (Квинсленд, Австралия) (237 км)
Погода в Clermont Airport (Квинсленд, Австралия) (289 км)
Погода в Emerald Airport (Квинсленд, Австралия) (295 км)
Погода в Rolleston Airport (Квинсленд, Австралия) (324 км)
Погода в Winton Airport (Квинсленд, Австралия) (331 км)
Погода в Roma Airport (Квинсленд, Австралия) (411 км)
Погода в Hughenden Airport (Квинсленд, Австралия) (419 км)
Погода в Thargomindah Airport (Квинсленд, Австралия) (428 км)

Пояснения к столбцам:

Ветер - указаны скорость ветра в м/с - средняя за 10 мин, порывы в срок и между сроками (в фигурных скобках) и направление, откуда дует ветер: С - северный, СВ - северо-восточный, В - восточный, ЮВ - юго-восточный, Ю - южный, ЮЗ - юго-западный, З - западный, СЗ - северо-западный.
Видимость - горизонтальная дальность видимости в метрах или километрах. При видимости от 1 до 10 км при отсутствии осадков обычно наблюдается дымка, при ухудшении видимости до 1 км и менее - туман. В сухую погоду видимость может ухудшаться дымом, пылью или мглою.
Явления - указаны атмосферные явления, наблюдавшиеся в срок или в последний час перед сроком; фигурными скобками обозначены явления, наблюдавшиеся между сроками (за 1-3 часа до срока); квадратными скобками обозначены град или гололедные отложения с указанием их диаметра в мм.
Облачность - указаны через наклонную черту общая и нижняя облачность в баллах и высота нижней границы облаков в метрах; квадратными скобками обозначены формы облаков: Ci - перистые, Cs - перисто-слоистые, Cc - перисто-кучевые, Ac - высококучевые, As - высокослоистые, Sc - слоисто-кучевые, Ns - слоисто-дождевые, Cu - кучевые, Cb - кучево-дождевые. Подробнее классификацию облаков см. в Атласе облаков (PDF).
T - Температура воздуха - температура, измеренная на высоте 2 м над землей.
Td - Температура точки росы - температура, при понижении до которой содержащийся в воздухе водяной пар достигнет насыщения.
f - Относительная влажность воздуха - влажноcть воздуха, измеренная на высоте 2 м над землей.
Te - Эффективная температура - температура, которую ощущает одетый по сезону человек в тени. Характеристика душности погоды. При расчете учитывается влияние влажности воздуха и скорости ветра на теплоощущения человека.
Tes - Эффективная температура на солнце - температура, которую ощущает человек, с поправкой на солнечный нагрев. Характеристика знойности погоды. Зависит от высоты солнца над горизонтом, облачности и скорости ветра. Ночью, в пасмурную погоду, а также при ветре 12 м/с и более поправка равна нулю.
P - Атмосферное давление - приведенное к уровню моря атмосферное давление.
Po - Атмосферное давление - измеренное на уровне метеостанции атмосферное давление.
Tmin - Минимальная температура - минимум температуры воздуха на высоте 2 м над землей.
Tmax - Максимальная температура - максимум температуры воздуха на высоте 2 м над землей.
R - Количество осадков - Количество выпавших осадков за период времени, мм. При наведении курсора мыши на число - период времени, за который выпало указанное количество осадков.
R24 - Количество осадков - Количество выпавших осадков за 24 часа, мм.
S - Снежный покров - Высота снежного покрова, см. При наведении курсора мыши на число - состояние снежного покрова и степень покрытия местности в баллах.